STRATOSAT-TK 1 (RS52S)

Last updated on Sun Dec 14 2025 00:03:11 GMT+0000 (Coordinated Universal Time)

1 57167U 23091B 25347.23579568 .00216459 00000+0 12902-2 0 9999 2 57167 97.5189 59.7259 0004643 321.1584 38.9348 15.77306042136959
UTC large
Height (km)
Speed (km/s)
/
Latitude / Longitude
Inclination (degrees)
Orbital Period (minutes)
Azimuth
Elevation
Range (km)
Doppler Factor

Next 0 passes for location: London (51.5072 / 0.1276)

Sorry there are no passes over London.